Tracking 30995 objects as of 5-Jul-2025
HD Live streaming from Space Station
objects crossing your sky now

STARLINK-2410

Track STARLINK-2410 now!
10-day predictions
STARLINK-2410 is classified as:


NORAD ID: 47825
Int'l Code: 2021-018AQ
Perigee: 553.5 km
Apogee: 555.1 km
Inclination: 53.1 °
Period: 95.6 minutes
Semi major axis: 6925 km
RCS: Unknown
Launch date: March 11, 2021
Source: United States (US)
Launch site: AIR FORCE EASTERN TEST RANGE (AFETR)
Your satellite tracking list
FENGYUN 1C DEB
Track 1 satellite(s)




NASA's NSSDC Master Catalog

Two Line Element Set (TLE):
1 47825U 21018AQ  25186.53276646  .00006837  00000-0  47724-3 0  9990
2 47825  53.0543 281.1494 0001213  81.6022 278.5105 15.06417374239340
Source of the keplerian elements: AFSPC